[[{"header":{"parameterUnit":"m.s-1","parameterCategory":1,"la1":30.2991,"la2":30.254,"lo1":-89.0895,"lo2":-89.0444,"dy":0.0017,"dx":0.0017,"nx":28,"ny":28,"refTime":"2025-07-03T21:00:00:Z","depth":0,"parameterNumber":2,"parameterNumberName":"U-component_of_WINDS"},"data":[0,0,0,0,0,0,0,0,0,0,0,0,0,0,0,0,0,0,0,0,0,0,0,0,0,0,0,0,0,0,0,0,0,0,0,0,0,0,0,0,0,0,0,0,0,0,0,0,0,0,0,0,0,0,0,0,0,0,1.3004,1.3005,0,1.309,1.3091,1.3092,1.3131,1.3131,1.3131,1.3131,1.3222,1.3225,1.3227,0,0,0,0,0,0,0,0,0,0,0,0,0,1.2879,1.2881,1.3004,1.3005,1.3006,1.3089,1.3091,1.3092,1.3131,1.3131,1.3131,1.3131,1.3221,1.3224,1.3227,0,0,0,0,0,0,0,0,0,0,0,0,0,1.2946,1.2882,1.3004,1.3036,1.304,1.3089,1.3091,1.3092,1.3131,1.3131,1.3131,1.3131,1.322,1.3224,1.3228,1.3253,0,0,1.3239,1.3241,0,0,0,0,0,0,0,0,1.2942,1.295,1.303,1.3034,1.3038,1.31,1.308,1.3146,1.3131,1.3097,1.3131,1.3131,1.3182,1.3189,1.3205,1.3257,1.3261,1.3239,1.3242,1.3243,1.3244,0,0,0,0,0,0,0,1.2937,1.2947,1.3038,1.3031,1.3036,1.3047,1.3057,1.3093,1.3139,1.31,1.3103,1.3112,1.3184,1.3201,1.3207,1.3263,1.3239,1.3243,1.3245,1.3246,1.3342,1.3342,0,0,0,0,0,0,1.2927,1.2943,1.3035,1.3041,1.2989,1.305,1.306,1.308,1.3139,1.3147,1.3112,1.3114,1.3195,1.3203,1.3211,1.3245,1.3243,1.3247,1.3249,1.3341,1.3342,1.3342,0,0,0,0,0,0,1.2924,1.2935,1.3032,1.2993,1.3006,1.3052,1.3074,1.3082,1.3099,1.3148,1.3157,1.3121,1.3195,1.3206,1.3242,1.3249,1.3249,1.3252,1.3341,1.3342,1.3342,1.3313,0,0,0,0,0,0,1.292,1.2934,1.2943,1.2992,1.3008,1.3061,1.3074,1.3083,1.3105,1.3108,1.3159,1.3167,1.3196,1.3237,1.3246,1.3254,1.3255,1.3341,1.3341,1.3342,1.3314,1.3313,1.3312,0,0,0,0,0,1.2916,1.2932,1.2943,1.2954,1.302,1.3061,1.307,1.3101,1.3105,1.3116,1.3147,1.3166,1.3246,1.324,1.3251,1.326,1.334,1.3341,1.3342,1.3314,1.3313,1.3312,0,0,0,0,0,0,1.2883,1.2939,1.2952,1.2984,1.3017,1.3067,1.3081,1.3099,1.3132,1.3134,1.3173,1.3184,1.3218,1.3243,1.3234,1.3289,1.3295,1.3298,1.3271,1.327,1.3269,1.3262,1.3258,0,0,0,0,0,1.2879,1.2906,1.2954,1.2978,1.2994,1.3035,1.3054,1.3075,1.3112,1.3126,1.3161,1.3196,1.323,1.3251,1.3285,1.3318,1.333,1.333,1.3329,1.3327,1.333,1.335,1.335,1.3344,1.3344,1.3344,0,0,1.2872,1.2906,1.2921,1.2973,1.3001,1.303,1.3046,1.3076,1.3098,1.3131,1.3168,1.3194,1.3237,1.3272,1.3289,1.3294,1.3334,1.3328,1.3327,1.333,1.335,1.3351,1.3351,1.3345,1.3344,1.3344,0,0,1.2874,1.2902,1.2925,1.2953,1.2995,1.3022,1.3027,1.3075,1.3094,1.3131,1.3157,1.3184,1.3241,1.3271,1.3293,1.3307,1.3325,1.3317,1.3311,1.333,1.3331,1.3331,1.3337,1.3338,1.3319,1.3319,1.3319,0,1.286,1.2903,1.2935,1.2963,1.2986,1.3016,1.3041,1.3067,1.3118,1.3134,1.3138,1.321,1.3241,1.3284,1.3287,1.3304,1.3313,1.3311,1.3328,1.3329,1.333,1.3335,1.3337,1.3317,1.3317,1.3318,1.3318,0,1.2884,1.2913,1.2927,1.2975,1.2999,1.3026,1.3063,1.3084,1.3104,1.3131,1.3169,1.3207,1.3249,1.3261,1.3281,1.3307,1.3309,1.332,1.3327,1.3328,1.3334,1.3337,1.3315,1.3316,1.3316,1.3317,0,0,1.2867,1.2932,1.2937,1.2959,1.3008,1.3032,1.3061,1.3101,1.3118,1.3153,1.3179,1.3226,1.3237,1.3263,1.3286,1.3303,1.3312,1.3313,1.3314,1.3311,1.3344,1.3335,1.3337,1.3325,1.3325,1.3326,1.3341,0,1.2875,1.2926,1.2956,1.2995,1.3023,1.3053,1.3078,1.3112,1.3138,1.3167,1.3197,1.323,1.3241,1.3257,1.3275,1.3307,1.3319,1.3307,1.335,1.3351,1.3338,1.334,1.3331,1.3343,1.3343,1.3344,1.3344,0,1.2892,1.2925,1.2966,1.3012,1.3026,1.3047,1.3087,1.3114,1.3153,1.3171,1.32,1.3224,1.3256,1.3261,1.3307,1.3298,1.3318,1.3336,1.3338,1.3343,1.3347,1.3346,1.3348,1.335,1.3348,1.3348,1.3347,0,1.2875,1.293,1.2962,1.298,1.3035,1.305,1.3074,1.3113,1.3136,1.3171,1.3186,1.3225,1.3246,1.3277,1.3311,1.3311,1.3354,1.3362,1.3371,1.337,1.3378,1.3377,1.3384,1.3391,1.3391,1.3391,1.3391,0,1.2882,1.2906,1.2956,1.2975,1.3004,1.3039,1.3067,1.3093,1.3128,1.3155,1.3183,1.3208,1.3252,1.3282,1.3309,1.3344,1.3353,1.337,1.3376,1.3367,1.3365,1.338,1.3381,1.3391,1.3391,1.3391,1.3391,0,1.2868,1.2902,1.2939,1.2988,1.3001,1.302,1.3062,1.3083,1.3111,1.3144,1.3154,1.3199,1.3236,1.3273,1.3323,1.3342,1.3376,1.3385,1.3362,1.3366,1.3373,1.3372,1.339,1.3394,1.3398,1.3398,1.3398,0,1.287,1.2889,1.294,1.2959,1.2982,1.3012,1.3035,1.3072,1.3095,1.3141,1.3157,1.3196,1.3229,1.3288,1.3325,1.3364,1.3375,1.3378,1.3381,1.3371,1.3375,1.3374,1.3376,1.3377,1.3377,1.3377,1.3377,0,1.2869,1.2885,1.2916,1.2954,1.298,1.3012,1.3044,1.3059,1.3102,1.3126,1.3164,1.319,1.3241,1.328,1.3323,1.335,1.3371,1.3375,1.338,1.337,1.3356,1.3364,1.3359,1.3375,1.3375,1.3375,1.3375,1.3375,1.2864,1.2882,1.2921,1.2955,1.2983,1.3013,1.3036,1.3066,1.3098,1.3141,1.3162,1.32,1.324,1.33,1.3326,1.3358,1.3363,1.3369,1.3371,1.3372,1.337,1.3351,1.3366,1.3366,1.3366,1.3366,1.3366,0,1.2865,1.2892,1.2922,1.2967,1.2994,1.301,1.3048,1.307,1.3102,1.3138,1.317,1.3214,1.3252,1.3292,1.3333,1.335,1.3361,1.336,1.3359,1.3365,1.3362,1.3355,1.3351,1.3351,1.3351,1.3351,1.3351,1.3351,1.2869,1.2901,1.2922,1.297,1.2997,1.3033,1.3053,1.3081,1.311,1.3157,1.3188,1.3214,1.3252,1.3296,1.3332,1.3343,1.3357,1.3353,1.3367,1.3364,1.3365,1.3366,1.3359,1.3356,1.3356,1.3367,1.3367,1.3367]},{"header":{"parameterUnit":"m.s-1","parameterCategory":1,"la1":30.2991,"la2":30.254,"lo1":-89.0895,"lo2":-89.0444,"dy":0.0017,"dx":0.0017,"nx":28,"ny":28,"refTime":"2025-07-03T21:00:00:Z","depth":0,"parameterNumber":3,"parameterNumberName":"V-component_of_WINDS"},"data":[0,0,0,0,0,0,0,0,0,0,0,0,0,0,0,0,0,0,0,0,0,0,0,0,0,0,0,0,0,0,0,0,0,0,0,0,0,0,0,0,0,0,0,0,0,0,0,0,0,0,0,0,0,0,0,0,0,0,0.0,0.0001,0,0.0018,0.0018,0.0018,-0.0028,-0.0029,-0.0031,-0.0032,-0.0015,-0.0013,-0.0011,0,0,0,0,0,0,0,0,0,0,0,0,0,-0.0076,-0.0075,0.0,0.0001,0.0001,0.0018,0.0018,0.0018,-0.0028,-0.0029,-0.0031,-0.0033,-0.0016,-0.0013,-0.0011,0,0,0,0,0,0,0,0,0,0,0,0,0,-0.0049,-0.0074,0.0,-0.002,-0.0022,0.0018,0.0018,0.0018,-0.0027,-0.0029,-0.0032,-0.0034,-0.0016,-0.0014,-0.0011,0.0049,0,0,-0.0003,-0.0002,0,0,0,0,0,0,0,0,-0.0051,-0.0046,-0.0017,-0.0019,-0.002,-0.0009,-0.0003,0.0028,-0.0027,-0.0025,-0.0032,-0.0035,-0.0011,-0.0009,-0.0001,0.005,0.005,-0.0003,-0.0001,0.0,0.0001,0,0,0,0,0,0,0,-0.0053,-0.0047,0.0007,-0.0017,-0.0019,-0.0031,-0.003,0.0003,-0.0006,-0.0026,-0.0029,-0.0026,-0.0013,-0.0004,-0.0001,0.0051,-0.0003,-0.0,0.0001,0.0003,0.0145,0.0148,0,0,0,0,0,0,-0.0052,-0.0049,0.0007,0.0008,-0.0041,-0.0028,-0.0027,-0.0011,-0.0007,-0.0008,-0.0024,-0.0028,-0.0007,-0.0004,-0.0001,0.0065,0.0,0.0003,0.0004,0.0143,0.0146,0.0148,0,0,0,0,0,0,-0.0053,-0.0046,0.0006,-0.0021,-0.0016,-0.0025,-0.0007,-0.0009,-0.0001,-0.0006,-0.0008,-0.0013,-0.0009,-0.0005,0.0036,0.0065,0.0004,0.0006,0.0141,0.0144,0.0147,0.0201,0,0,0,0,0,0,-0.0055,-0.0046,-0.0023,-0.0021,-0.0014,0.0043,-0.0005,-0.0007,0.0004,-0.0001,0.0004,0.0002,-0.001,0.0032,0.0038,0.0068,0.0009,0.0138,0.0142,0.0146,0.0196,0.0205,0.0213,0,0,0,0,0,-0.0058,-0.0007,-0.0021,-0.0014,0.0016,0.0045,0.0049,0.0033,0.0007,0.003,0.0025,0.0002,0.0062,0.0036,0.0043,0.0074,0.0136,0.0141,0.0146,0.0192,0.0204,0.0213,0,0,0,0,0,0,-0.0004,-0.0007,-0.0023,0.003,0.0038,0.0037,0.0066,0.0047,0.0062,0.0057,0.0037,0.0038,0.0081,0.0082,0.0054,0.0129,0.0094,0.0101,0.0127,0.0138,0.0146,0.0144,0.0011,0,0,0,0,0,0.0013,0.0038,0.0035,0.0081,0.0086,0.0075,0.0088,0.0075,0.0082,0.0085,0.0084,0.0092,0.0111,0.0125,0.0143,0.0197,0.0195,0.0221,0.0229,0.0237,0.0242,0.0265,0.0275,0.0164,0.0164,0.0164,0,0,0.0051,0.0052,0.007,0.0092,0.0097,0.0121,0.0079,0.0108,0.0125,0.009,0.0126,0.0126,0.0132,0.0178,0.0198,0.018,0.0272,0.0243,0.0248,0.025,0.0271,0.0282,0.0291,0.0168,0.0167,0.0167,0,0,0.013,0.0136,0.0173,0.0177,0.0184,0.0176,0.0185,0.0186,0.0184,0.0221,0.0193,0.0213,0.0249,0.0253,0.026,0.0337,0.0315,0.0344,0.0387,0.0411,0.0419,0.0427,0.045,0.0459,0.0349,0.0349,0.0349,0,0.0175,0.0212,0.0194,0.0223,0.0232,0.0201,0.0236,0.0242,0.0255,0.0261,0.0241,0.0282,0.0285,0.0328,0.0347,0.0355,0.0362,0.0342,0.042,0.0427,0.0434,0.0456,0.0465,0.0353,0.0352,0.0352,0.0352,0,0.0265,0.029,0.0319,0.033,0.0343,0.0376,0.0361,0.0376,0.0361,0.0354,0.0389,0.0391,0.0407,0.0417,0.0404,0.0457,0.0445,0.0423,0.0386,0.0448,0.0468,0.0477,0.0357,0.0356,0.0355,0.0354,0,0,0.0379,0.0378,0.0388,0.0391,0.0394,0.0413,0.0443,0.0457,0.0468,0.0478,0.05,0.0529,0.0506,0.0514,0.0501,0.0522,0.0577,0.0496,0.0495,0.0508,0.0631,0.0646,0.0656,0.0563,0.0564,0.0566,0.0629,0,0.0454,0.0505,0.0488,0.0538,0.0559,0.0528,0.0553,0.0557,0.0551,0.0566,0.056,0.0579,0.055,0.0554,0.0573,0.0566,0.0601,0.0562,0.058,0.0581,0.0577,0.0668,0.0684,0.0745,0.0638,0.0639,0.064,0,0.0549,0.056,0.0612,0.0607,0.0615,0.0638,0.0648,0.0665,0.0667,0.066,0.0667,0.0648,0.0675,0.064,0.0673,0.0647,0.0654,0.0651,0.0653,0.0652,0.0613,0.0666,0.0764,0.0772,0.0653,0.0652,0.0651,0,0.0622,0.065,0.0683,0.0687,0.0684,0.07,0.0699,0.07,0.0708,0.0716,0.0721,0.0733,0.0739,0.0747,0.0731,0.0708,0.0766,0.073,0.0759,0.0759,0.0771,0.077,0.0868,0.0781,0.078,0.078,0.078,0,0.0706,0.0738,0.0715,0.0736,0.0769,0.0749,0.0783,0.0779,0.0778,0.0796,0.077,0.0787,0.0766,0.078,0.0767,0.0795,0.0799,0.0792,0.0788,0.0793,0.0793,0.0795,0.0789,0.0783,0.0782,0.0782,0.0781,0,0.0793,0.078,0.0813,0.0806,0.0805,0.083,0.0823,0.084,0.0832,0.0853,0.0857,0.0843,0.0858,0.0843,0.0857,0.0849,0.0884,0.0876,0.0883,0.088,0.0907,0.0904,0.1008,0.1019,0.0927,0.0928,0.0929,0,0.0847,0.087,0.0864,0.0874,0.0874,0.089,0.0897,0.0878,0.0886,0.0888,0.0905,0.0917,0.0925,0.095,0.094,0.095,0.0939,0.0975,0.094,0.0943,0.0935,0.0933,0.0933,0.0981,0.0982,0.0983,0.0984,0,0.0941,0.0932,0.0944,0.0952,0.0961,0.0967,0.0971,0.098,0.0959,0.097,0.0983,0.099,0.1003,0.1014,0.102,0.1018,0.0996,0.0995,0.1001,0.1005,0.1007,0.1002,0.0899,0.0992,0.0991,0.0991,0.099,0.099,0.101,0.1027,0.1025,0.1038,0.1038,0.1041,0.1055,0.1047,0.1059,0.1067,0.1054,0.1071,0.1069,0.1074,0.1074,0.1085,0.107,0.1081,0.1083,0.1085,0.1087,0.1007,0.1087,0.1087,0.1087,0.1086,0.1086,0,0.1099,0.1095,0.1107,0.1112,0.1121,0.11,0.1102,0.1111,0.1125,0.1125,0.1133,0.1147,0.1157,0.1147,0.1155,0.1165,0.1155,0.1168,0.1165,0.1164,0.1102,0.1094,0.1175,0.1175,0.1175,0.1175,0.1175,0.1175,0.1147,0.1174,0.1164,0.1189,0.1185,0.12,0.1203,0.1204,0.1203,0.122,0.1227,0.1221,0.1215,0.1222,0.1229,0.1225,0.1228,0.1243,0.1236,0.1178,0.1169,0.1161,0.1153,0.1245,0.1245,0.1296,0.1296,0.1297]}]]